Tracking 28125 objects as of 2-Oct-2023
HD Live streaming from Space Station
objects crossing your sky now

OBJECT B

Track OBJECT B now!
10-day predictions


NORAD ID: 51947
Int'l Code: 2022-023B
Perigee: 467.9 km
Apogee: 567.8 km
Inclination: 63.4 °
Period: 94.8 minutes
Semi major axis: 6888 km
RCS: Unknown
Launch date: March 5, 2022
Source: People's Republic of China (PRC)
Launch site: Xichang Space Center, China (XSC)
Your satellite tracking list
Your tracking list is empty




NASA's NSSDC Master Catalog

Two Line Element Set (TLE):
1 51947U 22023B   23275.51423246  .00032814  00000-0  14852-2 0  9991
2 51947  63.4457  30.8936 0072521 333.0034  26.7313 15.18383024 87607
Source of the keplerian elements: AFSPC